Weather History for Fountain Dale, PA

Change the Weather History Date:

Tuesday, April 16, 2013

  Actual Average (KHGR) Record (KHGR)
Temperature  
Mean Temperature 63 °F -  
Max Temperature 73 °F 61 °F 88 °F (2002)
Min Temperature 53 °F 41 °F 27 °F (2014)
Degree Days  
Heating Degree Days 2    
Growing Degree Days 13 (Base 50)    
Moisture  
Dew Point 51 °F    
Average Humidity 67    
Maximum Humidity 77    
Minimum Humidity 53    
Precipitation  
Precipitation 0.00 in - - ()
Sea Level Pressure  
Sea Level Pressure 30.20 in    
Wind  
Wind Speed 3 mph (SW)    
Max Wind Speed 12 mph    
Max Gust Speed 21 mph    
Visibility 10 miles    
Events      
Averages and records for this station are not official NWS values.
T = Trace of Precipitation, MM = Missing Value Source: NWS Daily Summary

Daily Weather History Graph

Daily Weather History Graph

Search for Another Location

Airport:

Trip Planner

Search our weather history database for the weather conditions in past years. The results will help you decide how hot, cold, wet, or windy it might be!

Date:

Astronomy

Apr. 16, 2013 Rise Set
Actual Time 6:30 AM EDT 7:49 PM EDT
Civil Twilight 6:02 AM EDT 8:17 PM EDT
Nautical Twilight 5:28 AM EDT 8:50 PM EDT
Astronomical Twilight 4:53 AM EDT 9:26 PM EDT
Moon 10:47 AM EDT (4/16) 12:44 AM EDT (4/16)
Length of Visible Light 14h 14m
Length of Day
13h 18m
Waxing Crescent, 33% of the Moon is Illuminated
Apr 16
Waxing Crescent
Apr 18
First Quarter
Apr 25
Full
May 2
Last Quarter
May 9
New

Hourly Weather History & Observations

Time (EDT) Temp. Dew Point Humidity Pressure Visibility Wind Dir Wind Speed Gust Speed Precip Events Conditions
12:53 AM 54.0 °F 45.0 °F 72% 30.27 in 10.0 mi Calm Calm - N/A   Overcast
1:42 AM 55.4 °F 44.6 °F 67% 30.26 in 10.0 mi Variable 3.5 mph - N/A   Overcast
1:53 AM 54.0 °F 45.0 °F 72% 30.25 in 10.0 mi Calm Calm - N/A   Overcast
2:53 AM 54.0 °F 46.0 °F 75% 30.24 in 10.0 mi Calm Calm - N/A   Overcast
3:53 AM 54.0 °F 46.0 °F 75% 30.23 in 10.0 mi Calm Calm - N/A   Overcast
4:53 AM 54.0 °F 46.0 °F 75% 30.24 in 10.0 mi Calm Calm - N/A   Overcast
5:36 AM 53.6 °F 46.4 °F 77% 30.24 in 10.0 mi Calm Calm - N/A   Overcast
5:51 AM 55.4 °F 46.4 °F 72% 30.24 in 10.0 mi Calm Calm - N/A   Overcast
5:53 AM 55.0 °F 46.9 °F 74% 30.24 in 10.0 mi Calm Calm - N/A   Overcast
6:53 AM 55.0 °F 48.0 °F 77% 30.25 in 10.0 mi WSW 3.5 mph - N/A   Overcast
7:26 AM 55.4 °F 48.2 °F 77% 30.26 in 10.0 mi Calm Calm - N/A   Overcast
7:53 AM 55.0 °F 48.0 °F 77% 30.27 in 10.0 mi Calm Calm - N/A   Overcast
8:53 AM 55.9 °F 48.0 °F 75% 30.27 in 10.0 mi Calm Calm - N/A   Overcast
9:53 AM 57.0 °F 50.0 °F 77% 30.26 in 9.0 mi Variable 4.6 mph - N/A   Overcast
10:53 AM 61.0 °F 52.0 °F 72% 30.25 in 10.0 mi WSW 5.8 mph - N/A   Overcast
11:53 AM 64.0 °F 53.1 °F 67% 30.24 in 10.0 mi Variable 5.8 mph - N/A   Overcast
12:53 PM 68.0 °F 54.0 °F 61% 30.21 in 10.0 mi WSW 9.2 mph 18.4 mph N/A   Mostly Cloudy
1:10 PM 68.0 °F 53.6 °F 60% 30.21 in 10.0 mi Variable 5.8 mph - N/A   Mostly Cloudy
1:42 PM 68.0 °F 53.6 °F 60% 30.20 in 10.0 mi Variable 3.5 mph - N/A   Overcast
1:53 PM 69.1 °F 54.0 °F 58% 30.19 in 10.0 mi Variable 6.9 mph - N/A   Overcast
2:53 PM 71.1 °F 55.0 °F 57% 30.17 in 10.0 mi Variable 4.6 mph - N/A   Overcast
3:53 PM 73.9 °F 55.9 °F 53% 30.13 in 10.0 mi Variable 5.8 mph 17.3 mph N/A   Scattered Clouds
4:53 PM 73.0 °F 55.0 °F 53% 30.12 in 10.0 mi WSW 11.5 mph 20.7 mph N/A   Clear
5:53 PM 73.0 °F 55.0 °F 53% 30.08 in 10.0 mi Variable 5.8 mph - N/A   Clear
6:53 PM 72.0 °F 55.0 °F 55% 30.08 in 10.0 mi SW 8.1 mph - N/A   Clear
7:53 PM 71.1 °F 54.0 °F 55% 30.08 in 10.0 mi SW 6.9 mph - N/A   Clear
8:53 PM 69.1 °F 54.0 °F 58% 30.10 in 10.0 mi SW 9.2 mph 18.4 mph N/A   Clear
9:53 PM 68.0 °F 55.0 °F 63% 30.12 in 10.0 mi SSW 6.9 mph - N/A   Clear
10:53 PM 64.9 °F 55.0 °F 70% 30.11 in 10.0 mi WSW 3.5 mph - N/A   Clear